Location: Chakepay
(13.3931°S, 72.1925°W)
Time: 15:51:58
(UTC+00:00)

Cosmos 1340 Rocket - Pass Details

Date: 15 November 2019
Orbit: 529 x 559 km, 81.2° (Epoch: 06 December)

Event Time Altitude Azimuth Distance (km) Brightness Sun altitude
Exits shadow 09:19:20 10° 337° (NNW) 1,781 5.0 -12.7°
Maximum altitude 09:23:05 45° 264° (W) 750 3.1 -11.8°
Drops below altitude 10° 09:26:54 10° 190° (S) 1,811 5.6 -11.0°
Sets 09:29:08 0° 183° (S) 2,704 6.6 -10.5°
